Location: Houston
(29.7630°N, 95.3630°W)
Time: 16:37:25

Saudisat 1A - Visible Passes

Search period start: 05 October 2015 00:00
Search period end: 15 October 2015 00:00
Orbit: 571 x 626 km, 64.6° (Epoch: 05 October)

Date Brightness Start Highest point End Pass type
(mag) Time Alt. Az. Time Alt. Az. Time Alt. Az.
05 Oct 11.2 20:16:10 10° W 20:18:11 12° WSW 20:19:55 10° SW visible
12 Oct 10.9 06:21:21 10° SSE 06:24:17 18° ESE 06:27:24 10° ENE visible
13 Oct 9.6 06:30:54 10° S 06:34:53 37° ESE 06:38:59 10° NE visible
14 Oct 8.1 06:41:12 10° SSW 06:45:32 81° ESE 06:49:57 10° NNE visible
